Location: Armstrong Village
(14.3346°N, 120.9854°E)
Time: 03:51:18
(UTC+00:00)

Meteor 2-15 - Visible Passes

Search period start: 21 April 2026 00:00
Search period end: 01 May 2026 00:00
Orbit: 936 x 954 km, 82.5° (Epoch: 20 April)

Date Brightness Start Highest point End Pass type
(mag) Time Alt. Az. Time Alt. Az. Time Alt. Az.
21 Apr 5.4 10:33:50 10° SE 10:38:38 25° E 10:43:26 10° NE visible
21 Apr 6.4 12:18:12 10° SW 12:23:08 26° W 12:28:05 10° NNW visible
22 Apr 4.7 10:49:07 10° SSE 10:54:48 44° E 11:00:30 10° NNE visible
22 Apr 7.1 12:36:23 10° WSW 12:39:31 14° W 12:42:39 10° NW visible
23 Apr 4.3 11:04:58 10° S 11:11:00 78° E 11:17:04 10° N visible
24 Apr 5.0 11:21:19 10° SSW 11:27:16 60° W 11:33:14 10° N visible
25 Apr 6.1 11:38:10 10° SSW 11:43:34 34° W 11:48:59 10° NNW visible
26 Apr 7.0 11:55:45 10° SW 11:59:55 19° W 12:04:07 10° NW visible
27 Apr 4.5 10:25:34 10° S 10:31:30 60° E 10:37:28 10° NNE visible
28 Apr 4.6 10:41:42 10° S 10:47:44 79° W 10:53:48 10° N visible
29 Apr 5.7 10:58:17 10° SSW 11:04:00 44° W 11:09:47 10° NNW visible
30 Apr 6.7 11:15:29 10° SW 11:20:20 25° W 11:25:14 10° NNW visible
30 Apr 8.0 20:41:32 10° ENE 20:43:00 11° E 20:44:26 10° E visible
